{"data":{"norad_id":67025,"epoch":"2026-09-20T14:13:12.039744Z","epoch_age_seconds":73700,"freshness":"FRESH","line1":"1 67025U 25293Y   26263.59250046  .00001826  00000+0  16077-3 0  9991","line2":"2 67025  70.0009 322.9856 0003596 269.2326  90.8421 14.98334408 44080","mean_motion":14.98334408,"eccentricity":0.0003596,"inclination_deg":70.0009,"raan_deg":322.9856,"arg_perigee_deg":269.2326,"mean_anomaly_deg":90.8421,"bstar":0.00016077,"rev_number":4408,"period_min":96.106716385305,"perigee_km":569.5429751397,"apogee_km":574.54154406321,"semimajor_km":6950.1792596015,"source":"CELESTRAK","updated_at":"2026-09-21T09:00:36.072947Z"}}